Location: Unspecified
(0.0000°N, 0.0000°E)
Time: 11:19:00
(UTC+00:00)

Explorer 11/Cluster Stage 4 - Pass Details

Date: 28 November 2019
Orbit: 467 x 1259 km, 28.8° (Epoch: 07 December)

Event Time Altitude Azimuth Distance (km) Brightness Sun altitude
Rises 01:40:34 0° 274° (W) 3,886 - -55.2°
Reaches altitude 10° 01:43:38 10° 263° (W) 3,030 - -54.6°
Maximum altitude 01:50:06 29° 206° (SSW) 2,084 - -53.4°
Exits shadow 01:55:25 15° 157° (SSE) 2,843 9.7 -52.3°
Drops below altitude 10° 01:57:00 10° 150° (SSE) 3,235 10.1 -52.0°
Sets 02:00:25 0° 139° (SE) 4,188 10.9 -51.3°
